Date,TemperatureHighF,TemperatureAvgF,TemperatureLowF,DewpointHighF,DewpointAvgF,DewpointLowF,HumidityHigh,HumidityAvg,HumidityLow,PressureMaxIn,PressureMinIn,WindSpeedMaxMPH,WindSpeedAvgMPH,GustSpeedMaxMPH,PrecipitationSumIn
2014-1-1,21,18,14,16,13,10,83,80,77,30.37,30.17,13,6,13,0.00
2014-1-2,15,13,5,11,7,-5,85,77,63,30.39,30.06,21,10,21,0.00
2014-1-3,14,6,-4,3,-4,-10,78,63,46,30.57,30.23,18,5,18,0.01
2014-1-4,35,25,12,25,13,3,68,60,54,30.23,30.01,21,10,21,0.12
2014-1-5,35,29,19,30,25,15,92,85,68,30.05,29.67,13,2,13,0.00
2014-1-6,19,-6,-14,16,-14,-23,87,68,60,30.38,29.79,22,11,23,0.00
2014-1-7,7,-4,-12,-1,-13,-21,70,66,60,30.48,30.36,15,6,15,0.00
2014-1-8,18,12,7,9,4,-1,76,69,62,30.57,30.40,8,2,8,0.00
2014-1-9,26,14,5,23,8,1,89,79,67,30.61,30.29,12,2,12,0.00
2014-1-10,40,35,26,39,33,23,95,93,89,30.29,29.69,13,4,13,0.62
2014-1-11,41,37,32,40,35,28,97,93,81,29.78,29.45,22,8,22,0.07
2014-1-12,40,34,30,31,28,25,85,79,67,30.05,29.77,23,8,23,0.77
2014-1-13,45,41,33,39,32,29,87,70,62,29.81,29.63,15,6,19,0.00
2014-1-14,41,32,25,31,24,15,89,73,55,29.89,29.72,27,8,27,0.00
2014-1-15,27,23,19,18,14,10,77,68,56,30.12,29.88,18,8,18,0.00
2014-1-16,29,23,17,26,18,9,89,80,66,30.06,29.70,29,11,29,0.00
2014-1-17,27,19,9,21,11,2,79,71,63,30.06,29.74,16,5,16,0.00
2014-1-18,20,16,10,16,10,5,87,79,68,30.05,29.84,16,4,16,0.00
2014-1-19,33,22,14,24,16,9,88,78,68,29.92,29.62,20,8,20,0.03
2014-1-20,35,32,23,28,24,18,81,71,61,29.99,29.59,16,5,16,0.06
2014-1-21,23,9,2,18,-3,-11,83,58,38,30.30,29.98,28,8,28,0.72
2014-1-22,12,7,0,8,-1,-7,83,70,57,30.28,30.03,17,5,17,0.00
2014-1-23,9,3,-2,3,-6,-11,74,66,58,30.63,30.09,20,8,20,0.00
2014-1-24,19,5,-6,14,-4,-14,85,65,55,30.62,29.72,30,11,30,0.00
2014-1-25,28,19,7,24,11,-5,90,71,49,29.91,29.45,24,11,24,0.00
2014-1-26,33,18,4,26,10,-5,84,73,59,29.92,29.48,31,8,31,0.00
2014-1-27,24,3,-8,16,-8,-18,77,59,43,30.49,29.63,32,12,32,0.00
2014-1-28,3,-5,-13,-9,-16,-21,68,58,43,30.55,30.37,13,4,13,0.00
2014-1-29,18,8,-3,3,-4,-11,72,58,41,30.37,30.24,17,6,17,0.00
2014-1-30,29,20,11,23,7,-1,86,58,47,30.24,29.85,25,10,25,0.00
2014-1-31,33,29,28,26,22,15,89,74,51,30.18,29.93,10,2,10,0.01
2014-2-1,37,32,28,36,30,25,94,92,89,30.14,29.82,10,3,10,0.13
2014-2-2,30,25,18,28,20,11,93,81,68,30.33,30.03,12,3,12,1.43
2014-2-3,30,17,10,15,9,5,82,72,52,30.47,30.28,12,2,12,0.01
2014-2-4,24,17,8,16,11,4,86,79,60,30.50,30.07,14,4,14,0.11
2014-2-5,26,21,16,20,16,10,89,81,70,30.45,29.88,20,7,20,0.00
2014-2-6,16,8,-3,10,1,-11,83,71,60,30.50,30.44,21,6,21,0.00
2014-2-7,11,0,-8,-2,-9,-15,73,66,53,30.53,30.45,12,3,15,0.00
2014-2-8,17,9,0,9,2,-7,82,74,66,30.45,30.21,9,2,9,0.00
2014-2-9,21,16,9,14,9,3,86,75,59,30.31,30.14,13,4,13,0.00
2014-2-10,18,8,-1,5,0,-7,80,71,54,30.50,30.30,12,2,12,0.01
2014-2-11,14,4,-6,2,-4,-11,77,70,58,30.60,30.49,9,1,9,0.12
2014-2-12,22,6,-10,7,-3,-16,79,67,47,30.53,30.14,9,2,9,0.00
2014-2-13,31,18,4,20,7,-1,81,65,41,30.14,29.56,10,2,10,0.00
2014-2-14,32,22,19,24,14,12,77,72,64,29.90,29.53,26,6,26,0.00
2014-2-15,26,18,12,14,10,8,84,72,57,30.14,29.89,10,3,16,0.01
2014-2-16,28,21,16,18,15,8,85,76,65,30.37,29.98,14,3,14,0.12
2014-2-17,29,19,10,26,14,6,90,80,68,30.40,29.73,24,8,24,0.00
2014-2-18,43,34,26,29,25,18,87,70,53,30.09,29.74,26,9,26,0.38
2014-2-19,43,38,29,31,29,25,88,72,59,30.10,29.66,18,5,18,4.56
2014-2-20,49,36,29,48,33,26,95,89,75,30.08,29.42,28,6,28,0.92
2014-2-21,38,35,32,31,25,16,77,66,44,29.92,29.55,32,12,32,11.04
2014-2-22,40,35,31,31,24,16,92,67,38,30.09,29.86,20,4,20,0.02
2014-2-23,32,27,20,30,16,9,90,64,47,30.22,30.06,17,5,17,0.02
2014-2-24,26,20,14,11,8,6,70,62,50,30.29,30.20,20,8,20,0.00
2014-2-25,26,21,15,13,10,5,75,63,52,30.26,30.13,20,7,20,0.00
2014-2-26,16,12,5,6,0,-3,71,60,42,30.26,29.80,20,8,20,0.00
2014-2-27,19,12,4,7,-1,-6,64,56,42,30.28,29.68,26,8,26,0.00
2014-2-28,29,15,0,10,0,-8,68,54,36,30.36,30.13,16,4,16,0.00
2014-3-1,36,28,21,24,16,10,85,63,48,30.30,30.09,12,3,12,0.00
2014-3-2,23,18,14,17,10,5,85,74,59,30.39,30.26,12,4,12,0.08
2014-3-3,19,9,2,6,-5,-8,71,53,35,30.56,30.38,17,4,17,0.04
2014-3-4,23,13,4,7,1,-7,72,58,48,30.49,30.26,9,2,9,0.48
2014-3-5,26,18,10,16,10,2,75,69,62,30.51,30.30,13,5,13,0.01
2014-3-6,31,21,15,16,11,7,76,65,53,30.50,30.20,15,6,16,0.04
2014-3-7,46,29,12,29,19,8,86,68,46,30.20,29.97,8,1,8,0.48
2014-3-8,37,34,27,32,29,20,89,81,73,30.25,29.97,12,2,12,0.06
2014-3-9,38,29,17,28,21,13,87,73,59,30.33,29.96,14,4,14,0.01
2014-3-10,53,43,36,40,34,27,81,70,58,29.96,29.69,17,6,17,0.11
2014-3-11,54,45,38,42,37,31,90,75,58,29.74,29.64,13,2,13,0.00
2014-3-12,41,29,14,34,25,8,93,85,72,30.10,29.51,18,4,18,0.17
2014-3-13,31,18,4,21,9,-1,81,69,49,30.27,30.04,16,4,16,0.01
2014-3-14,54,42,31,37,29,21,68,60,46,30.04,29.67,21,10,21,0.44
2014-3-15,43,38,31,30,27,20,82,65,50,30.25,29.86,15,6,15,4.84
2014-3-16,31,24,17,20,11,4,66,58,50,30.38,30.22,21,10,21,0.00
2014-3-17,40,24,11,22,14,4,80,65,47,30.19,29.94,16,7,16,0.00
2014-3-18,53,36,22,37,28,19,89,73,52,30.02,29.81,15,6,15,0.00
2014-3-19,51,43,35,45,38,30,89,83,74,29.98,29.68,21,9,21,0.04
2014-3-20,44,36,32,30,26,23,82,67,56,30.10,29.98,23,7,23,0.44
2014-3-21,59,42,31,41,33,24,87,70,43,30.11,29.71,18,5,18,0.01
2014-3-22,55,40,32,39,29,23,77,66,46,30.27,29.71,20,6,20,0.12
2014-3-23,32,27,21,23,12,7,70,52,38,30.43,30.27,16,6,16,0.00
2014-3-24,34,25,15,13,9,6,75,53,37,30.42,30.17,16,3,16,0.00
2014-3-25,32,25,19,22,14,5,81,62,41,30.27,30.01,24,5,24,0.01
2014-3-26,36,26,16,16,12,7,79,57,38,30.42,30.22,12,3,12,0.11
2014-3-27,50,38,31,39,26,15,81,62,49,30.22,29.69,23,10,23,0.10
2014-3-28,51,43,34,45,36,29,90,77,65,30.22,29.63,26,12,26,0.03
2014-3-29,40,35,32,32,30,24,91,80,65,30.22,30.08,18,5,18,0.21
2014-3-30,54,38,25,28,23,17,83,58,31,30.28,30.16,12,2,12,0.00
2014-3-31,65,49,31,37,32,27,85,56,30,30.20,29.92,17,5,17,0.00
2014-4-1,56,52,47,44,35,30,75,53,42,30.09,29.81,29,10,29,0.06
2014-4-2,61,50,40,36,32,28,70,52,36,30.18,30.08,15,3,15,0.66
2014-4-3,48,38,34,36,34,31,93,85,54,30.11,29.77,22,10,22,1.72
2014-4-4,51,40,36,50,36,27,97,86,67,29.92,29.51,13,1,13,0.01
2014-4-5,51,40,32,28,24,19,74,54,29,30.24,29.93,0,0,0,0.00
2014-4-6,57,42,26,33,26,20,81,56,36,30.25,30.00,14,2,14,0.00
2014-4-7,52,42,36,42,34,26,92,73,51,30.02,29.52,20,6,20,0.70
2014-4-8,57,47,37,40,36,32,93,70,45,29.87,29.56,14,5,14,0.02
2014-4-9,59,48,33,36,32,25,84,56,33,30.07,29.87,12,4,12,0.00
2014-4-10,72,57,46,48,40,34,83,55,36,29.99,29.75,25,9,25,0.01
2014-4-11,67,56,48,50,40,28,93,62,24,30.07,29.92,12,2,12,0.01
2014-4-12,75,62,44,52,43,34,70,51,33,30.12,29.82,23,8,23,0.00
2014-4-13,75,67,59,56,53,50,73,60,45,29.82,29.62,21,7,21,0.00
2014-4-14,70,52,30,56,42,28,91,72,47,29.89,29.46,29,11,29,0.01
2014-4-15,30,29,27,28,25,20,91,85,75,29.98,29.88,15,6,15,0.02
2014-4-16,51,35,30,29,25,24,80,68,43,30.33,30.30,7,2,13,0.00
2014-4-17,66,61,53,35,31,26,51,32,25,30.31,30.25,21,7,21,0.00
2014-4-18,68,56,44,42,36,28,74,49,27,30.32,30.24,20,4,20,0.00
2014-4-19,64,50,38,41,32,21,84,54,27,30.44,30.31,20,7,20,0.00
2014-4-20,75,55,36,37,32,26,78,46,20,30.34,30.11,18,3,18,0.00
2014-4-21,77,62,45,51,42,35,72,51,29,30.11,29.81,17,4,17,0.00
2014-4-22,63,53,41,55,40,28,89,63,41,30.01,29.73,26,8,26,0.00
2014-4-23,58,42,34,35,28,24,72,58,35,30.16,30.01,26,5,26,0.00
2014-4-24,62,53,45,34,27,22,62,39,22,30.16,29.79,22,8,22,0.00
2014-4-25,63,51,44,45,38,30,92,65,39,29.87,29.66,20,4,20,0.31
2014-4-26,66,57,46,42,36,24,71,48,22,30.05,29.83,22,5,22,0.01
2014-4-27,64,49,38,40,35,29,80,60,36,30.16,29.96,24,11,24,0.00
2014-4-28,49,46,44,46,40,29,93,79,53,29.99,29.69,18,10,18,0.38
2014-4-29,75,60,47,57,47,34,96,68,24,29.78,29.53,25,9,25,0.11
2014-4-30,66,55,47,51,46,37,90,73,50,29.88,29.74,26,7,26,0.00
2014-5-1,51,47,42,39,37,35,81,68,55,29.88,29.82,21,8,21,0.00
2014-5-2,53,48,45,43,41,38,87,75,59,29.89,29.83,17,6,17,0.00
2014-5-3,66,55,46,44,39,30,83,58,27,29.87,29.74,22,8,22,0.01
2014-5-4,59,54,46,39,32,20,62,44,26,30.10,29.86,28,5,28,0.00
2014-5-5,63,52,44,41,34,28,72,52,35,30.09,29.93,21,6,21,0.01
2014-5-6,72,55,40,42,36,29,80,53,30,30.07,29.97,24,7,24,0.00
2014-5-7,86,65,48,58,46,32,70,52,36,30.00,29.86,15,6,15,0.00
2014-5-8,88,71,51,63,54,45,83,59,35,29.98,29.88,20,6,20,0.00
2014-5-9,75,69,60,64,57,51,85,66,50,29.91,29.74,31,7,31,0.16
2014-5-10,75,63,51,53,43,34,86,54,25,30.02,29.86,16,2,16,0.16
2014-5-11,84,67,51,62,51,40,92,59,35,30.08,29.91,29,3,29,0.88
2014-5-12,83,72,61,69,64,60,95,79,58,30.03,29.93,17,5,17,1.57
2014-5-13,81,71,58,69,64,56,91,80,59,30.10,29.92,20,5,20,0.25
2014-5-14,58,55,51,56,51,49,94,89,74,30.16,29.86,23,3,23,0.99
2014-5-15,61,50,39,59,46,33,96,85,61,30.09,29.70,21,4,21,0.01
2014-5-16,53,44,35,40,36,32,93,74,50,30.08,30.02,21,1,21,0.01
2014-5-17,55,47,40,39,36,31,88,67,41,30.26,30.07,12,2,12,0.01
2014-5-18,65,52,36,41,35,29,91,58,27,30.33,30.25,10,1,10,0.00
2014-5-19,69,57,41,44,38,33,85,53,32,30.33,30.10,16,4,16,0.00
2014-5-20,81,73,60,63,58,43,69,60,49,30.13,29.90,13,4,13,0.00
2014-5-21,85,74,64,68,63,57,92,71,41,29.94,29.82,12,2,12,0.53
2014-5-22,71,66,57,64,52,44,88,62,42,30.10,29.84,18,4,18,0.00
2014-5-23,72,61,50,48,46,43,82,58,37,30.18,30.09,18,3,18,0.00
2014-5-24,79,71,60,53,48,43,65,45,29,30.24,30.13,10,2,12,0.00
2014-5-25,82,68,53,54,49,44,86,54,28,30.18,30.06,10,1,10,0.00
2014-5-26,84,70,56,62,55,50,83,62,42,30.11,29.94,12,1,12,0.00
2014-5-27,86,76,68,66,63,59,87,66,44,30.00,29.87,21,2,21,0.00
2014-5-28,84,73,65,65,62,59,91,71,45,30.04,29.90,16,2,16,0.00
2014-5-29,84,71,59,62,57,52,86,64,39,30.13,30.03,16,3,16,0.00
2014-5-30,84,70,54,57,52,47,88,57,32,30.21,30.12,12,2,12,0.00
2014-5-31,88,73,56,58,51,47,80,50,27,30.23,30.09,12,3,12,0.00
2014-6-1,87,74,57,63,51,46,70,48,27,30.16,29.96,10,2,10,0.00
2014-6-2,80,74,70,70,66,63,89,75,60,30.02,29.89,18,5,18,0.11
2014-6-3,84,74,64,66,58,45,90,61,28,29.94,29.89,22,4,22,0.11
2014-6-4,64,60,56,59,54,47,93,80,57,29.94,29.79,14,2,14,0.22
2014-6-5,77,64,52,54,50,42,95,65,31,29.99,29.88,13,2,13,0.23
2014-6-6,81,67,52,56,50,44,90,59,30,30.03,29.94,9,1,9,0.00
2014-6-7,83,71,56,56,52,47,89,55,31,30.05,29.83,12,2,12,0.00
2014-6-8,77,68,60,63,56,49,93,69,38,29.98,29.75,17,3,17,0.57
2014-6-9,78,68,59,59,56,52,86,67,44,30.03,29.92,10,2,10,0.00
2014-6-10,78,67,60,63,59,55,91,75,56,29.94,29.80,16,4,16,0.10
2014-6-11,74,69,65,66,64,62,92,85,69,29.80,29.69,10,3,10,0.01
2014-6-12,80,70,64,64,62,60,92,77,53,29.84,29.73,12,1,12,0.01
2014-6-13,72,66,54,63,49,39,74,55,38,30.07,29.80,17,5,17,0.00
2014-6-14,78,63,46,50,44,38,90,54,26,30.16,30.05,17,1,17,0.00
2014-6-15,84,71,53,61,53,44,82,56,36,30.10,29.94,17,3,17,0.00
2014-6-16,87,79,71,68,66,59,86,65,46,30.09,29.99,17,1,17,0.00
2014-6-17,90,81,72,70,68,66,83,66,50,30.01,29.86,16,3,16,0.00
2014-6-18,89,77,70,72,68,63,92,75,48,30.04,29.92,25,1,25,0.43
2014-6-19,85,76,69,69,67,63,95,76,54,30.10,29.96,14,3,14,0.04
2014-6-20,81,71,66,71,65,60,92,83,67,30.08,29.89,14,2,14,0.20
2014-6-21,82,70,62,68,62,58,93,79,46,30.03,29.88,6,1,6,0.02
2014-6-22,84,73,66,70,67,64,94,81,59,29.94,29.86,12,2,12,0.87
2014-6-23,85,74,65,73,67,62,93,81,58,29.91,29.84,13,2,13,0.15
2014-6-24,80,72,68,71,68,66,93,88,72,29.92,29.86,5,1,5,0.09
2014-6-25,84,74,66,69,66,62,95,79,50,30.00,29.88,10,1,10,0.10
2014-6-26,83,72,63,67,63,59,94,74,47,30.07,29.99,12,1,12,0.10
2014-6-27,87,76,64,69,64,62,93,71,45,30.10,30.03,12,3,12,0.00
2014-6-28,81,75,71,72,68,64,90,78,63,30.12,30.02,12,2,12,0.17
2014-6-29,84,77,71,71,69,67,91,77,57,30.05,29.94,12,3,12,0.18
2014-6-30,82,75,70,72,69,66,92,81,64,29.99,29.76,16,3,16,0.00
2014-7-1,84,74,66,73,65,61,93,75,48,29.83,29.63,21,2,21,0.01
2014-7-2,77,71,66,65,60,55,88,70,52,29.98,29.80,14,2,14,0.01
2014-7-3,73,64,58,57,50,40,89,61,31,30.18,29.96,14,3,14,0.00
2014-7-4,78,66,52,52,47,40,86,54,27,30.30,30.18,16,2,16,0.00
2014-7-5,78,68,53,54,50,47,84,56,35,30.32,30.10,10,1,10,0.00
2014-7-6,79,72,66,68,61,54,77,68,60,30.10,29.83,12,2,12,0.00
2014-7-7,85,75,72,71,67,63,93,77,56,29.84,29.71,12,2,12,0.21
2014-7-8,80,73,67,71,65,58,94,77,48,29.82,29.62,17,3,17,0.21
2014-7-9,79,71,62,62,58,51,91,65,42,30.04,29.81,17,2,17,0.00
2014-7-10,78,68,57,55,52,48,89,60,37,30.17,30.04,8,2,8,0.00
2014-7-11,81,70,57,61,56,51,92,64,39,30.23,30.13,12,1,12,0.00
2014-7-12,82,75,68,68,64,59,81,69,55,30.16,29.93,12,2,12,0.00
2014-7-13,84,77,71,72,67,60,89,72,45,29.94,29.85,15,3,15,0.00
2014-7-14,85,73,66,66,62,53,90,73,35,29.90,29.78,10,1,10,0.12
2014-7-15,69,64,56,63,53,47,92,71,48,29.95,29.78,18,3,18,0.12
2014-7-16,69,61,53,54,51,48,91,71,53,30.04,29.94,18,2,18,0.00
2014-7-17,74,63,51,54,49,44,92,64,35,30.16,30.04,6,1,6,0.00
2014-7-18,78,66,53,56,52,48,89,63,38,30.22,30.12,12,2,12,0.00
2014-7-19,77,68,58,62,58,54,89,73,57,30.12,30.02,11,2,11,0.00
2014-7-20,84,71,59,65,60,56,94,71,41,30.09,30.02,12,2,12,0.00
2014-7-21,85,74,61,64,60,56,92,66,40,30.15,30.05,12,1,12,0.00
2014-7-22,88,77,64,68,64,61,90,66,47,30.11,29.96,13,2,13,0.00
2014-7-23,78,72,66,70,63,55,92,75,55,30.06,29.93,16,2,16,0.06
2014-7-24,78,69,62,60,53,47,88,60,37,30.12,30.03,12,2,12,0.00
2014-7-25,76,67,55,57,54,50,86,65,45,30.11,29.97,12,1,12,0.00
2014-7-26,80,72,62,72,64,57,90,78,61,29.98,29.80,9,1,9,0.01
2014-7-27,83,72,65,71,67,56,93,84,59,29.83,29.63,16,1,16,0.41
2014-7-28,71,64,55,59,55,48,86,72,56,30.04,29.77,16,4,16,0.41
2014-7-29,74,60,49,61,53,47,92,80,52,30.08,30.00,13,1,13,0.53
2014-7-30,76,67,58,61,57,56,94,74,50,30.05,29.99,10,1,10,0.53
2014-7-31,80,70,57,60,58,54,92,68,47,30.07,30.03,10,1,10,0.00
2014-8-1,80,68,61,63,60,58,89,77,54,30.12,30.06,10,0,10,0.00
2014-8-2,81,71,60,68,62,58,93,76,48,30.15,30.08,14,1,14,0.10
2014-8-3,83,72,60,64,58,50,94,67,33,30.16,30.07,17,2,17,0.10
2014-8-4,82,77,70,64,62,55,82,61,47,30.08,30.05,5,0,5,0.00
2014-8-5,77,70,65,68,64,62,89,81,65,30.09,30.00,5,0,5,0.71
2014-8-6,78,70,64,68,63,58,95,81,58,30.08,29.99,7,1,7,0.83
2014-8-7,79,69,58,61,58,54,93,70,44,30.13,30.04,13,2,13,0.00
2014-8-8,81,70,58,60,57,54,87,65,41,30.13,30.04,16,4,16,0.00
2014-8-9,82,71,60,60,57,52,86,63,37,30.10,30.02,15,4,15,0.00
2014-8-10,86,74,63,70,63,57,87,69,49,30.07,29.94,18,3,18,0.00
2014-8-11,76,71,68,69,67,65,94,86,73,29.95,29.76,14,1,14,0.03
2014-8-12,69,66,60,66,61,55,93,85,74,29.94,29.72,17,3,17,0.04
2014-8-13,76,66,56,60,56,51,94,72,44,30.03,29.94,12,2,12,0.04
2014-8-14,72,64,56,58,50,41,86,62,35,30.08,30.00,18,2,18,0.00
2014-8-15,73,61,46,51,46,41,91,62,33,30.11,30.00,18,1,18,0.00
2014-8-16,77,65,50,68,58,47,88,77,61,30.02,29.92,12,1,12,0.00
2014-8-17,83,74,65,67,64,61,95,75,50,29.99,29.91,12,2,12,0.00
2014-8-18,84,73,62,69,64,58,89,74,58,29.93,29.81,8,2,8,0.00
2014-8-19,84,72,65,69,66,62,93,81,57,29.83,29.76,12,2,12,0.54
2014-8-20,83,74,66,68,65,63,94,76,52,29.98,29.77,15,1,15,0.54
2014-8-21,78,73,69,72,68,66,93,87,77,30.03,29.94,10,1,10,0.16
2014-8-22,82,75,69,73,70,66,96,87,71,30.01,29.92,7,0,6,0.20
2014-8-23,85,76,71,74,71,66,96,84,64,30.03,29.96,7,0,7,1.08
2014-8-24,83,74,66,73,68,63,92,81,66,30.06,30.00,0,0,0,0.00
2014-8-25,86,76,69,76,69,64,93,79,61,30.08,30.00,0,0,0,0.00
2014-8-26,86,75,68,73,68,65,92,79,57,30.13,30.03,0,0,0,0.01
2014-8-27,82,75,70,68,64,57,91,72,44,30.11,30.05,0,0,0,0.01
2014-8-28,78,74,66,62,60,59,78,64,52,30.10,30.05,0,0,0,0.00
2014-8-29,82,71,61,68,62,57,88,74,62,30.10,29.97,12,1,12,0.00
2014-8-30,81,75,70,70,67,63,85,75,64,29.98,29.90,15,4,15,0.00
2014-8-31,81,74,69,71,69,66,93,83,65,29.99,29.92,15,1,15,0.02
2014-9-1,83,76,70,72,69,65,93,81,65,29.95,29.80,14,3,14,0.01
2014-9-2,77,71,67,68,66,64,93,84,71,29.99,29.87,13,1,13,0.12
2014-9-3,81,72,62,67,62,58,95,74,47,30.07,29.98,6,1,7,0.00
2014-9-4,84,75,64,71,66,60,89,76,60,30.09,29.98,14,1,14,0.00
2014-9-5,90,79,69,75,70,66,93,75,57,30.06,29.88,17,2,17,0.35
2014-9-6,73,67,61,68,60,52,95,78,52,30.17,29.96,12,2,12,0.35
2014-9-7,75,63,52,55,52,49,93,69,43,30.24,30.15,12,2,12,0.00
2014-9-8,76,65,54,59,54,50,91,69,42,30.19,30.03,12,2,12,0.00
2014-9-9,75,65,55,64,58,53,93,78,58,30.09,29.96,13,1,13,0.00
2014-9-10,74,70,66,72,66,58,94,87,74,29.96,29.63,16,2,16,0.72
2014-9-11,74,74,74,72,72,72,93,93,93,30.22,29.71,16,0,0,0.72
2014-9-12,74,74,74,72,72,72,93,93,93,30.29,30.18,0,0,0,0.00
2014-9-13,74,69,58,72,62,41,93,81,51,30.34,30.16,10,0,10,0.00
2014-9-14,64,60,58,48,44,43,59,57,49,30.35,30.20,8,0,10,0.00
2014-9-15,62,62,62,47,47,47,59,59,59,30.24,30.08,0,0,9,0.00
2014-9-16,64,62,62,47,47,44,59,58,49,30.21,30.10,5,0,5,0.00
2014-9-17,67,62,62,51,47,46,61,57,49,30.11,29.98,5,0,7,0.00
2014-9-18,72,64,63,49,49,46,61,58,43,30.18,30.03,10,0,10,0.00
2014-9-19,70,67,66,49,49,45,53,52,44,30.25,30.06,12,0,12,0.00
2014-9-20,79,70,66,62,53,48,60,54,51,30.06,29.82,13,1,13,0.00
2014-9-21,77,72,60,62,58,47,76,63,60,30.08,29.69,17,1,17,0.00
2014-9-22,64,60,60,50,48,40,71,64,44,30.30,30.09,7,0,7,0.00
2014-9-23,70,63,61,50,46,44,56,53,43,30.38,30.28,7,0,7,0.00
2014-9-24,76,68,66,50,50,46,56,53,36,30.41,30.27,13,0,13,0.00
2014-9-25,71,71,71,50,50,50,48,48,48,30.33,30.25,0,0,0,0.00
2014-9-26,78,72,71,54,51,50,49,48,41,30.31,30.20,5,0,5,0.00
2014-9-27,77,73,71,57,54,51,60,51,42,30.30,30.16,6,0,6,0.00
2014-9-28,78,71,61,60,56,48,84,59,39,30.19,30.05,7,0,5,0.00
2014-9-29,76,65,53,57,53,50,93,70,42,30.05,29.95,7,1,7,0.00
2014-9-30,76,76,76,53,53,53,44,44,44,29.95,29.95,1,1,0,0.00
2014-10-1,76,76,76,53,53,53,44,44,44,29.95,29.95,1,1,0,0.00
2014-10-2,76,73,67,66,58,53,92,64,44,29.95,29.76,6,1,6,0.05
2014-10-3,70,62,45,64,55,41,92,79,63,29.78,29.47,25,6,25,0.06
2014-10-4,46,42,41,42,34,28,89,73,51,29.83,29.74,21,3,21,0.01
2014-10-5,57,49,42,42,35,28,77,60,35,29.83,29.73,16,2,21,0.01
2014-10-6,58,50,45,52,46,41,93,84,75,29.75,29.63,16,1,14,0.26
2014-10-7,58,51,45,56,48,42,93,89,81,29.85,29.68,9,1,9,0.42
2014-10-8,61,51,44,46,40,29,94,70,31,30.06,29.85,20,2,20,0.43
2014-10-9,60,52,44,45,41,36,80,66,49,30.16,30.03,9,1,9,0.00
2014-10-10,56,48,41,42,39,36,85,70,50,30.19,30.12,9,1,9,0.00
2014-10-11,56,42,39,39,35,33,85,76,42,30.24,30.14,4,0,4,0.00
2014-10-12,64,52,35,45,38,32,88,60,41,30.23,29.97,14,3,14,0.00
2014-10-13,75,66,56,66,60,44,95,82,60,29.97,29.71,20,4,20,0.16
2014-10-14,72,63,56,62,58,50,93,85,70,29.73,29.54,20,4,21,0.35
2014-10-15,59,55,52,55,51,48,92,87,78,29.79,29.69,18,1,18,0.01
2014-10-16,62,56,51,56,51,49,95,85,68,29.83,29.75,12,1,12,0.02
2014-10-17,66,57,51,51,49,46,90,75,50,29.78,29.60,20,4,20,0.00
2014-10-18,53,47,43,49,42,35,91,83,65,30.18,29.77,22,4,22,0.12
2014-10-19,53,44,32,39,35,29,92,71,52,30.28,30.02,6,1,6,0.12
2014-10-20,58,52,46,52,46,39,87,79,70,30.02,29.83,12,2,12,0.02
2014-10-21,52,48,45,44,40,35,85,74,62,30.25,29.94,12,3,12,0.00
2014-10-22,52,44,38,41,37,34,87,76,63,30.37,30.25,13,2,13,0.00
2014-10-23,50,50,50,39,39,39,68,68,68,30.32,30.32,4,4,4,0.00
2014-10-24,53,51,50,50,46,39,91,85,68,30.32,29.92,4,1,4,0.00
2014-10-25,69,60,50,55,44,29,89,59,23,30.32,29.87,20,4,20,0.00
2014-10-26,63,51,38,38,33,27,83,53,26,30.04,29.92,12,2,12,0.00
2014-10-27,77,62,43,59,46,33,74,55,38,29.97,29.70,22,6,22,0.00
2014-10-28,69,60,48,58,48,37,90,66,47,29.99,29.74,22,6,22,0.22
2014-10-29,48,45,41,38,35,33,81,68,59,30.16,29.99,17,4,17,0.00
2014-10-30,49,45,43,37,35,33,77,67,55,30.19,30.06,20,0,20,0.00
2014-10-31,45,40,34,38,34,24,89,79,66,30.19,29.94,20,6,20,0.07
2014-11-1,42,35,28,26,22,17,79,59,38,30.43,30.19,20,8,20,0.07
2014-11-2,49,35,21,25,20,15,88,58,26,30.51,30.33,18,1,18,0.00
2014-11-3,64,51,39,36,27,22,52,40,28,30.33,30.08,20,6,20,0.00
2014-11-4,57,51,44,48,40,28,93,70,33,30.14,29.98,21,7,21,0.01
2014-11-5,44,44,44,39,39,39,85,85,85,30.14,30.14,4,4,4,0.00
2014-11-6,44,44,44,39,39,39,85,85,85,30.14,30.14,4,4,4,0.00
2014-11-8,44,42,38,39,34,29,85,71,65,30.14,29.83,15,4,15,0.00
2014-11-9,46,39,32,32,29,27,84,67,49,30.02,29.88,15,4,15,0.00
2014-11-10,60,50,43,39,34,31,70,55,36,29.94,29.73,24,6,24,0.00
2014-11-11,60,48,35,47,38,31,89,70,51,30.04,29.71,24,8,24,0.01
2014-11-12,35,32,28,31,22,19,85,68,62,30.32,30.05,16,6,16,0.01
2014-11-13,32,27,24,21,18,15,83,68,54,30.33,30.26,17,6,17,0.00
2014-11-14,34,26,20,21,17,14,85,69,50,30.42,30.31,13,3,20,0.00
2014-11-15,33,26,17,18,15,12,82,65,48,30.48,30.27,12,2,12,0.00
2014-11-16,33,30,28,28,24,18,92,79,62,30.29,29.94,7,1,7,0.00
2014-11-17,29,22,12,27,16,1,92,78,56,30.04,29.83,22,6,22,0.00
2014-11-18,16,14,9,7,4,-1,71,65,60,30.26,30.03,25,8,25,0.00
2014-11-19,34,23,12,24,13,5,75,67,56,30.25,29.81,30,11,30,0.00
2014-11-20,28,23,19,13,10,5,74,58,47,30.29,30.04,23,8,23,0.00
2014-11-21,19,16,12,6,6,4,71,65,54,30.54,30.29,8,1,8,0.00
2014-11-22,46,30,16,40,24,6,91,78,66,30.54,30.09,16,4,16,0.01